SCOUT A-1 DEB, 18496

Orbit data source: Space-Track

SCOUT A-1 DEB, 18496 is space debris in LEO originally from a launch on Tue, 30 Oct 1973 UTC launched from the Air Force Western Test Range (AFWTR). Debris objects in space refer to the collection of defunct objects orbiting the Earth. Examples of debris include non-operational satellites, rocket bodies, and fragments generated from explosions, collisions, or faulty payload assembly.

Loading next visibility...
Identifier
18496, 1973-081D
Orbit
LEO
Country
Flag of USUS
Related business
Manufacturer
Unknown
Mission
Spacecraft
Bus & Motor
Unknown
Mass
Unknown
Launch date (UTC)
1973-10-30 (53 years ago)
Launch vehicle
Unknown
Launch site
Air Force Western Test Range (AFWTR)
Object type
Payload
Rocket body
Debris
Shape & HBR
Unknown shape, 0.1 m
Radar Cross Section
Medium (>0.1 m² and <1 m²)

Expand to show TLE details & history
Last TLE update: 2 days ago

TLE from 2 days ago
0 SCOUT A-1 DEB
1 18496U 73081D   26171.29537902  .00000178  00000-0  14745-3 0  9991
2 18496  89.9160 112.9967 0134185 189.4777 324.6719 13.81239856927762
Epoch: 2026-06-20T07:05Z
TLE epoch observation values (Epoch: 2026-06-20T07:05:20.747Z)
Latitude
26.78728°
Longitude
-81.89398°
Altitude
882.955 km
Speed
7.453 km/s
True Right ascension
19h 31m 49s
True Declination
26° 39' 06"
Sunlit
Object was in full shadow at epoch
Visualization orbit readout
Latitude
Unknown
Longitude
Unknown
Altitude
Unknown
Speed
Unknown
Apparent Right ascension
Unknown
Apparent Declination
Unknown
Sunlit
N/A
Visualization observer readout
Local Sidereal Time
00:39:43
Azimuth
Unknown
Elevation
Unknown
Doppler factor
Unknown
Orbital elements
Apogee altitude
1,054.916 km
Perigee altitude
858.076 km
Semi-major axis
7,334.633 km
Eccentricity
0.01342
Inclination
89.916°
RAAN
112.9967°
Arg. of periapsis
189.4777°
True anomaly
323.77045°
Mean anomaly
324.6719°
Eccentric anomaly
324.22241°
Mean motion
3.45522 °/min
Orbital period
104.19 mins
BSTAR
0.00014745
Loading maneuver chart data...
Computing Atmospheric mass density...
Loading historical data...
Loading historical data...
Loading historical data...
Loading historical data...
Loading historical data...
Loading historical data...
Loading historical data...
Other satellites on launch #81 in the year 1973 (1973-10-30 UTC)

Documentation

Showing up to 5 results
|